Regional Weather Roundup
Issued by NWS

Home | Current Version | Previous Version | Text Only | Print | Product List | Glossary Off
Versions: 1 2 3 4 5 6 7 8 9 10 11 12 13 14 15 16 17 18 19 20 21 22 23 24 25 26 27 28 29 30 31 32 33 34 35 36 37 38 39 40 41 42 43 44 45 46 47 48 49 50

000
ASUS43 KOAX 210110
RWRNE

WEATHER ROUNDUP FOR NEBRASKA
NATIONAL WEATHER SERVICE OMAHA NE
700 PM CST SAT DEC 20 2014

NOTES: SATELLITE DATA IS BEING USED TO AUGMENT CLOUD COVER ABOVE
       12000 FEET.
       "FAIR" INDICATES FEW OR NO CLOUDS BELOW 12,000 FEET WITH NO
       SIGNIFICANT WEATHER AND/OR OBSTRUCTIONS TO VISIBILITY.

  * THESE STATIONS DO NOT REPORT WEATHER SUCH AS RAIN...SNOW OR FOG.

NEZ001>004-019>022-054>056-210200-
NEBRASKA PANHANDLE

CITY           SKY/WX    TMP DP  RH WIND       PRES   REMARKS
SCOTTSBLUFF    PTCLDY    28  22  78 E7        29.92R WCI  21
ALLIANCE       PTCLDY    30  26  85 SW3       29.90S
CHADRON        PTCLDY    31  25  78 CALM      29.90S
KIMBALL        CLOUDY    36  26  65 W7        29.92S WCI  30
SIDNEY         PTCLDY    31  25  78 SW9       29.95R WCI  23
$$

NEZ057>060-069>072-079>082-210200-
SOUTHWEST NEBRASKA

CITY           SKY/WX    TMP DP  RH WIND       PRES   REMARKS
NORTH PLATTE   CLEAR     26  24  92 CALM      29.94R
IMPERIAL       CLOUDY    36  27  69 CALM      29.95S
LEXINGTON      MOCLDY    34  31  87 SW6       29.96S WCI  29
MCCOOK         PTCLDY    38  31  76 S6        29.96F WCI  33
OGALLALA       CLEAR     26  24  91 SW5       29.94S WCI  20
$$

NEZ005>010-023>029-035>040-094-210200-
NORTH CENTRAL NEBRASKA

CITY           SKY/WX    TMP DP  RH WIND       PRES   REMARKS
VALENTINE      CLEAR     29  25  85 W6        29.91R WCI  23
AINSWORTH      PTCLDY    27  24  91 SW6       29.90S WCI  20
BROKEN BOW     PTCLDY    32  28  85 CALM      29.93S
O`NEILL        CLOUDY    30  30 100 S6        29.95S FOG     WCI  24
THEDFORD       CLEAR     32  29  88 W3        29.91S
$$

NEZ041-046>049-061>064-073>077-083>087-210200-
SOUTH CENTRAL NEBRASKA

CITY           SKY/WX    TMP DP  RH WIND       PRES   REMARKS
GRAND ISLAND   FOG       31  30  96 S10       30.00R VSB 1/2 WCI  22
AURORA         FOG       31  31 100 SE8       30.00R VSB 1/4 WCI  23
HASTINGS       MOCLDY    34  31  88 SE7       29.98R WCI  28
HEBRON         MOCLDY    32  31  95 SE3       30.03S FOG
HOLDREGE       MOCLDY    37  31  81 SW3       29.97S
KEARNEY *      PTCLDY    30  27  86 CALM      29.97S
YORK           FOG       32  32 100 CALM      30.02R VSB 1/4
$$

NEZ011>018-030>034-042>045-210200-
NORTHEAST NEBRASKA

CITY           SKY/WX    TMP DP  RH WIND       PRES   REMARKS
NORFOLK        CLOUDY    32  31  96 S12       30.00R FOG     WCI  23
ALBION         CLOUDY    32  30  94 S10       29.99R FOG     WCI  24
BLAIR          CLOUDY    33  32  94 SE7       30.05F FOG     WCI  27
COLUMBUS *     CLOUDY    30  27  86 SE7       30.04S WCI  23
FREMONT        CLOUDY    34  33  96 SE7       30.05F FOG     WCI  28
TEKAMAH        CLOUDY    33  31  92 S10       30.07F FOG     WCI  25
WAYNE          CLOUDY    31  31  99 S14       30.02S FOG     WCI  21
$$

NEZ050>053-065>068-078-088>093-210200-
SOUTHEAST NEBRASKA

CITY           SKY/WX    TMP DP  RH WIND       PRES   REMARKS
LINCOLN        CLOUDY    36  33  89 SE10      30.07S WCI  28
OMAHA EPPLEY   CLOUDY    35  32  88 S9        30.09F FOG     WCI  28
BEATRICE       CLOUDY    36  35  99 SE7       30.04F FOG     WCI  30
FALLS CITY     CLOUDY    34  33  96 E5        30.09F FOG     WCI  30
NEBRASKA CITY  CLOUDY    34  34 100 SE5       30.08F FOG     WCI  30
PLATTSMOUTH    CLOUDY    34  32  93 SE5       30.07F FOG     WCI  30
$$

NEZ044-045-051>053-067-210200-
OMAHA AREA

CITY           SKY/WX    TMP DP  RH WIND       PRES   REMARKS
OMAHA EPPLEY   CLOUDY    35  32  88 S9        30.09F FOG     WCI  28
BLAIR          CLOUDY    33  32  94 SE7       30.05F FOG     WCI  27
FREMONT        CLOUDY    34  33  96 SE7       30.05F FOG     WCI  28
MILLARD        CLOUDY    35  32  90 SE5       30.07F WCI  31
OFFUTT AFB     CLOUDY    34  32  92 SE6       30.07F WCI  29
PLATTSMOUTH    CLOUDY    34  32  93 SE5       30.07F FOG     WCI  30
WAHOO          CLOUDY    34  32  92 SE7       30.05F FOG     WCI  28
$$



USA.gov is the U.S. government's official web portal to all federal, state and local government web resources and services.